Regional Weather Roundup
Issued by NWS

Home | Current Version | Previous Version | Text Only | Print | Product List | Glossary Off
Versions: 1 2 3 4 5 6 7 8 9 10 11 12 13 14 15 16 17 18 19 20 21 22 23 24 25 26 27 28 29 30 31 32 33 34 35 36 37 38 39 40 41 42 43 44 45 46 47 48 49 50

000
ASUS43 KIND 271900
RWRIN

WEATHER ROUNDUP FOR INDIANA
NATIONAL WEATHER SERVICE INDIANAPOLIS IN
300 PM EDT THU JUL 27 2017

NOTE: "FAIR" INDICATES FEW OR NO CLOUDS BELOW 12,000 FEET WITH NO
SIGNIFICANT WEATHER AND/OR OBSTRUCTIONS TO VISIBILITY.

* - STATION DOES NOT REPORT WEATHER SUCH AS PRECIPITATION OR FOG.

+ - STATION NOT QUALITY CONTROLLED BY THE NATIONAL WEATHER SERVICE.
    USE DATA WITH CAUTION...ESPECIALLY DEWPOINT AND RELATIVE
    HUMIDITY OBSERVATIONS.

INZ001>003-010>013-019-020-272000-
NORTHWEST INDIANA

CITY           SKY/WX    TMP DP  RH WIND       PRES   REMARKS
GARY /AIRPORT/ CLOUDY    75  70  83 N12       29.94F
MICHIGAN CITY+ CLOUDY    77  72  83 N13       29.93F
MONTICELLO +   PTSUNNY   83  73  70 NW9       29.89F
RENSSELAER +   CLOUDY    79  72  78 N6        29.91F

$$

LMZ046-743>745-272000-
SOUTHERN LAKE MICHIGAN

STATION/POSITION TIME  TEMP    WIND        PRES    WAVE
                       AIR SEA DIR/SP/G            HT
                 (UTC) (F)     (DEG/KT/KT) (MB)    (FT)
BURNS HARBOR     1840   73     360/ 11/ 14 1013.9F
MICHIGAN CITY    1830   73     360/ 12/ 14   N/A
5NW MICH CITY    1850   73 75   10/ 14/ 17   N/A     2

$$

INZ004-005-014>016-021>024-272000-
NORTH CENTRAL INDIANA

CITY           SKY/WX    TMP DP  RH WIND       PRES   REMARKS
ELKHART        MOSUNNY   82  70  65 CALM      29.90F
GOSHEN         PTSUNNY   80  70  71 CALM      29.90F
SOUTH BEND     PTSUNNY   84  72  67 VRB5      29.90F
WARSAW +       CLOUDY    73  72  94 CALM      29.91F

$$

INZ006>009-017-018-025>027-272000-
NORTHEAST INDIANA

CITY           SKY/WX    TMP DP  RH WIND       PRES   REMARKS
FORT WAYNE     PTSUNNY   80  72  76 W7        29.91F
KENDALLVILLE + CLOUDY    79  73  79 CALM      29.91F

$$

INZ028-029-035-036-043>045-051>053-272000-
WEST CENTRAL INDIANA

CITY           SKY/WX    TMP DP  RH WIND       PRES   REMARKS
GREENCASTLE +  CLOUDY    73  70  88 W6        29.94F
LAFAYETTE      CLOUDY    82  76  81 W6        29.89F
TERRE HAUTE    CLOUDY    79  71  76 W7        29.93F

$$

INZ030>032-037>040-046>048-054>057-064-065-272000-
CENTRAL INDIANA

CITY           SKY/WX    TMP DP  RH WIND       PRES   REMARKS
COLUMBUS       PTSUNNY   81  68  65 W8        29.93F
FRANKFORT +    CLOUDY    82  75  81 CALM      29.93F
GREENWOOD *+   PTSUNNY   79  70  74 SW7       29.93F
INDIANAPOLIS   CLOUDY    78  72  81 W15       29.92S
-EAGLE CREEK   CLOUDY    81  72  74 W10       29.91F
KOKOMO +       LGT RAIN  80  73  79 NW7       29.91F
MT COMFORT *+  CLOUDY    77  73  88 N7        29.93F
SHELBYVILLE    CLOUDY    79  70  74 W9        29.92F

$$

INZ033-034-041-042-049-050-058-059-272000-
EAST CENTRAL INDIANA

CITY           SKY/WX    TMP DP  RH WIND       PRES   REMARKS
MUNCIE         PTSUNNY   83  71  67 NW6       29.91F
RICHMOND +     LGT RAIN  72  72 100 W7        29.94F

$$

INZ060-061-067>069-081>083-085>088-272000-
SOUTHWEST INDIANA

CITY           SKY/WX    TMP DP  RH WIND       PRES   REMARKS
EVANSVILLE     CLOUDY    81  75  82 NW3       29.94F
HUNTINGBURG *+ CLOUDY    80  75  84 NW5       29.95F

$$

INZ062-063-066-070>080-084-089>092-272000-
SOUTH CENTRAL AND SOUTHEAST INDIANA

CITY           SKY/WX    TMP DP  RH WIND       PRES   REMARKS
BLOOMINGTON    CLOUDY    81  70  69 NW12G22   29.94F
MADISON *+     CLOUDY    86  70  58 SW8       29.96F
SEYMOUR +      CLOUDY    84  72  65 W10       29.93F

$$




USA.gov is the U.S. government's official web portal to all federal, state and local government web resources and services.